Meteopurmerend
purmerend
Purmerend - Baaienwijk



My webcam  My webcam


Onweer radar Meer informatie blitzortung!


Regen radar Meer informatie rain snow radar


Bezoek onze andere website:

CandyAppleRed WebdesignWebdesign Purmerend Candy Apple Red

MeteopurmerendBlog

Template documentation
and downloads



Het weer levert geen direct gevaar op.    Er zijn geen waarschuwingen afgegeven.

15 daagse weersverwachting Helsingør (DK)

  • Overzicht
  • Per uur
  • 15 dagen
  • Extra
  • Vergelijk
  • Kaarten
  • Dagkaart
  • Meer »
  • Info
  • Statistieken
  • Directe link
    Temp 6h Neerslag Wind  
 05:09     21:24    Daglengte: 16:15 Vandaag
08:00
19°
0.4 mm
3
14:00
21°
3.9 mm
5
warningclass
20:00
21°
 
4
 05:11     21:22    Daglengte: 16:11 Morgen
02:00
18°
 
6
08:00
18°
 
9
14:00
19°
2.8 mm
10
20:00
17°
4.7 mm
9
 05:13     21:20    Daglengte: 16:07 Vrijdag 30 Jul
02:00
17°
1.1 mm
9
08:00
17°
7.8 mm
10
14:00
21°
6.0 mm
10
20:00
20°
3.8 mm
8
 05:15     21:18    Daglengte: 16:03 Zaterdag 31 Jul
02:00
17°
2.1 mm
5
Locatie info
Region: Hovedstaden
Latitude: 56.0334°N
Longitude: 12.6135°E
8 masl
Postcode: 3000
Temp/Neerslag /Baro Onweer/Dauwpunt
    Temp Baro 1h Neerslag Dauwpunt Wind UV Bewolking  
 05:09     21:24    Daglengte: 16:15 Vandaag
07:00
19°
1008.5 hPa
13%
18.3°
3
Windvlaag: 5.5 m/s
74%
08:00
19°
1008.2 hPa 0.4 mm
73%
18.4°
3
Windvlaag: 4.6 m/s
82%
09:00
19°
1008.2 hPa 0.6 mm
82%
17.9°
4
Windvlaag: 3.3 m/s
83%
10:00
20°
1008.0 hPa 0.7 mm
82%
17.2°
4
Windvlaag: 4.3 m/s
47% warningclass
11:00
20°
1008.0 hPa 1.4 mm
82%
17.4°
5
Windvlaag: 6.2 m/s
37% warningclass
12:00
21°
1007.8 hPa
82%
17.5°
5
Windvlaag: 6.7 m/s
23%
13:00
21°
1007.6 hPa 0.5 mm
82%
16.4°
5
Windvlaag: 6.8 m/s
18% warningclass
14:00
21°
1007.4 hPa 0.7 mm
82%
15.3°
5
Windvlaag: 6.8 m/s
47% warningclass
15:00
21°
1007.2 hPa
82%
14.8°
4
Windvlaag: 6.2 m/s
21% warningclass
16:00
21°
1007.0 hPa
82%
13.2°
4
Windvlaag: 5.9 m/s
41% warningclass
17:00
21°
1006.8 hPa
80%
12.6°
5
Windvlaag: 5.6 m/s
37%
18:00
22°
1006.6 hPa
69%
13.1°
5
Windvlaag: 6.2 m/s
18%
19:00
21°
1006.5 hPa
80%
13.2°
5
Windvlaag: 5.6 m/s
24%
20:00
21°
1006.5 hPa
82%
13.2°
4
Windvlaag: 5.3 m/s
24%
21:00
21°
1006.5 hPa
76%
14.3°
4
Windvlaag: 6.8 m/s
34%
22:00
20°
1006.2 hPa
36%
15.0°
4
Windvlaag: 7.3 m/s
11%
23:00
20°
1006.0 hPa
24%
16.0°
4
Windvlaag: 8.3 m/s
41%
 05:11     21:22    Daglengte: 16:11 Morgen
00:00
19°
1005.7 hPa
71%
16.5°
5
Windvlaag: 8.5 m/s
19%
01:00
19°
1005.3 hPa
71%
16.3°
5
Windvlaag: 9 m/s
43%
02:00
18°
1004.9 hPa
18%
16.2°
6
Windvlaag: 9.2 m/s
6%
03:00
18°
1004.5 hPa
21%
16.2°
6
Windvlaag: 8.6 m/s
19%
04:00
18°
1004.2 hPa
23%
15.2°
7
Windvlaag: 8.4 m/s
14%
05:00
17°
1004.0 hPa
29%
14.6°
7
Windvlaag: 8.5 m/s
15%
06:00
17°
1003.9 hPa
27%
14.7°
7
Windvlaag: 9.2 m/s
15%
07:00
17°
1003.7 hPa
29%
14.4°
8
Windvlaag: 9.8 m/s
8%
08:00
18°
1003.3 hPa
28%
13.8°
9
Windvlaag: 11.2 m/s
9%
09:00
18°
1003.0 hPa
33%
12.8°
9
Windvlaag: 12.9 m/s
11%
10:00
18°
1002.7 hPa 0.9 mm
82%
11.9°
8
Windvlaag: 12.9 m/s
34%
11:00
18°
1002.8 hPa 1.2 mm
82%
13.1°
9
Windvlaag: 12.2 m/s
36% warningclass
12:00
18°
1002.8 hPa 0.8 mm
82%
13.5°
9
Windvlaag: 12.1 m/s
14%
13:00
19°
1002.9 hPa
79%
13.1°
10
Windvlaag: 11.7 m/s
8%
14:00
19°
1002.8 hPa
71%
12.4°
10
Windvlaag: 12 m/s
14%
15:00
19°
1002.6 hPa
79%
12.1°
10
Windvlaag: 11.7 m/s
19%
16:00
19°
1002.3 hPa
81%
12.1°
10
Windvlaag: 11.5 m/s
15%
17:00
19°
1002.0 hPa 1.2 mm
82%
12.5°
9
Windvlaag: 13.6 m/s
15%
18:00
18°
1002.1 hPa 1.2 mm
82%
14.2°
9
Windvlaag: 10.9 m/s
27%
19:00
18°
1002.2 hPa 1.3 mm
80%
13.5°
9
Windvlaag: 8.7 m/s
14%
20:00
17°
1002.3 hPa 1.0 mm
80%
13.2°
9
Windvlaag: 8.7 m/s
11%
21:00
17°
1002.5 hPa
78%
13.2°
9
Windvlaag: 9 m/s
24%
22:00
17°
1002.7 hPa
80%
13.2°
8
Windvlaag: 8.7 m/s
20%
23:00
17°
1002.7 hPa
79%
13.2°
8
Windvlaag: 8.4 m/s
27%
 05:13     21:20    Daglengte: 16:07 Vrijdag 30 Jul
00:00
17°
1002.6 hPa
76%
12.8°
8
Windvlaag: 9.3 m/s
46%
01:00
17°
1002.4 hPa
74%
12.6°
8
Windvlaag: 9.5 m/s
16%
02:00
17°
1002.1 hPa 1.1 mm
73%
12.2°
9
Windvlaag: 9.4 m/s
60%
03:00
17°
1001.7 hPa 1.0 mm
72%
11.9°
9
Windvlaag: 9.8 m/s
16%
04:00
16°
1001.3 hPa
72%
12.0°
9
Windvlaag: 9.9 m/s
17%
05:00
16°
1000.6 hPa 1.1 mm
88%
12.8°
9
Windvlaag: 9.7 m/s
52%
06:00
16°
1000.3 hPa 2.0 mm
36%
13.9°
9
Windvlaag: 9.9 m/s
76%
07:00
17°
1000.2 hPa 1.8 mm
35%
14.6°
10
Windvlaag: 9.8 m/s
56%
08:00
17°
1000.2 hPa 2.0 mm
85%
14.9°
10
Windvlaag: 9.7 m/s
52%
09:00
18°
1000.4 hPa 1.9 mm
88%
15.6°
10
Windvlaag: 8.8 m/s
68%
10:00
18°
1000.6 hPa 2.2 mm
92%
14.1°
10
Windvlaag: 8.1 m/s
64%
11:00
19°
1000.9 hPa 1.9 mm
92%
13.9°
10
Windvlaag: 7 m/s
34%
12:00
20°
1000.9 hPa
85%
15.1°
10
Windvlaag: 6.6 m/s
28%
13:00
20°
1000.8 hPa
80%
14.4°
10
Windvlaag: 6.4 m/s
37%
14:00
21°
1000.7 hPa
77%
14.7°
10
Windvlaag: 6.7 m/s
34%
15:00
21°
1000.6 hPa
37%
14.9°
9
Windvlaag: 6.8 m/s
35%
16:00
21°
1000.6 hPa
36%
14.3°
9
Windvlaag: 5.6 m/s
28%
17:00
21°
1000.6 hPa
27%
14.8°
9
Windvlaag: 5.5 m/s
47%
18:00
21°
1000.7 hPa 1.9 mm
27%
14.4°
8
Windvlaag: 6.1 m/s
70%
19:00
20°
1000.7 hPa 1.9 mm
28%
14.2°
8
Windvlaag: 6.9 m/s
67%
20:00
20°
1000.7 hPa
29%
14.4°
8
Windvlaag: 6.6 m/s
62%
21:00
19°
1001.0 hPa
27%
14.4°
7
Windvlaag: 6.4 m/s
46%
22:00
19°
1001.0 hPa
27%
14.7°
6
Windvlaag: 6.3 m/s
57%
23:00
18°
1000.9 hPa
32%
14.5°
6
Windvlaag: 5.8 m/s
71%
 05:15     21:18    Daglengte: 16:03 Zaterdag 31 Jul
00:00
18°
1000.7 hPa
30%
15.0°
5
Windvlaag: 5.9 m/s
75%
01:00
17°
1000.6 hPa
40%
14.9°
5
Windvlaag: 5.7 m/s
59%
02:00
17°
1000.3 hPa 2.1 mm
30%
15.1°
5
Windvlaag: 5.5 m/s
67%
03:00
17°
1001.6 hPa
29%
15.2°
4
Windvlaag: 10.9 m/s
68%
04:00
16°
1001.4 hPa
24%
15.0°
3
Windvlaag: 10.7 m/s
17%
05:00
16°
1001.1 hPa
28%
15.2°
3
Windvlaag: 10.5 m/s
70%
06:00
17°
1000.8 hPa
31%
15.5°
4
Windvlaag: 10.1 m/s
32%
Temp/Neerslag /Baro Onweer/Dauwpunt
    Temp Baro Neerslag Dauwpunt Wind Bewolking  
 05:09     21:24    Daglengte: 16:15 Vandaag
08:00
19°
1008.2 hPa 0.4 mm 18.4°
3
82%
11:00
20°
1008.0 hPa 2.7 mm 17.4°
5
37% warningclass
14:00
21°
1007.4 hPa 1.2 mm 15.3°
5
47% warningclass
17:00
21°
1006.8 hPa   12.6°
5
37%
20:00
21°
1006.5 hPa   13.2°
4
24%
23:00
20°
1006.0 hPa   16.0°
4
41%
 05:11     21:22    Daglengte: 16:11 Morgen
02:00
18°
1004.9 hPa   16.2°
6
6%
05:00
17°
1004.0 hPa   14.6°
7
15%
08:00
18°
1003.3 hPa   13.8°
9
9%
11:00
18°
1002.8 hPa 2.1 mm 13.1°
9
36% warningclass
14:00
19°
1002.8 hPa 0.8 mm 12.4°
10
14%
17:00
19°
1002.0 hPa 1.2 mm 12.5°
9
15%
20:00
17°
1002.3 hPa 3.5 mm 13.2°
9
11%
23:00
17°
1002.7 hPa   13.2°
8
27%
 05:13     21:20    Daglengte: 16:07 Vrijdag 30 Jul
02:00
17°
1002.1 hPa 1.1 mm 12.2°
9
60%
05:00
16°
1000.6 hPa 2.1 mm 12.8°
9
52%
08:00
17°
1000.2 hPa 5.8 mm 14.9°
10
52%
11:00
19°
1000.9 hPa 6.0 mm 13.9°
10
34%
14:00
21°
1000.7 hPa   14.7°
10
34%
17:00
21°
1000.6 hPa   14.8°
9
47%
20:00
20°
1000.7 hPa 3.8 mm 14.4°
8
62%
23:00
18°
1000.9 hPa   14.5°
6
71%
 05:15     21:18    Daglengte: 16:03 Zaterdag 31 Jul
02:00
17°
1000.3 hPa 2.1 mm 15.1°
5
67%
05:00
16°
1001.1 hPa   15.2°
3
70%
08:00
18°
1000.0 hPa 6.4 mm 15.6°
5
100% warningclass
11:00
20°
1000.4 hPa 19.5 mm 12.1°
6
0%
14:00
19°
999.6 hPa 22.5 mm 14.2°
6
1%
17:00
19°
998.7 hPa 25.9 mm 14.4°
7
1%
20:00
17°
998.8 hPa 28.5 mm 14.3°
5
1%
23:00
15°
1000.8 hPa 28.9 mm 12.4°
7
1%
 05:17     21:16    Daglengte: 15:59 Zondag 01 Aug
02:00
15°
1001.6 hPa 29.0 mm 11.0°
7
1%
05:00
15°
1001.7 hPa 29.2 mm 10.0°
7
1%
08:00
16°
1002.2 hPa 29.3 mm 9.0°
7
1%
11:00
17°
1003.1 hPa 29.6 mm 8.9°
7
1%
14:00
18°
1003.6 hPa 29.7 mm 7.8°
7
1%
17:00
19°
1003.7 hPa 29.8 mm 8.5°
6
1%
20:00
17°
1003.6 hPa 29.9 mm 8.9°
6
1%
23:00
15°
1004.3 hPa 29.9 mm 8.3°
6
1%
 05:18     21:14    Daglengte: 15:56 Maandag 02 Aug
02:00
14°
1004.5 hPa 30.0 mm 9.7°
7
0%
05:00
15°
1004.8 hPa 30.2 mm 10.8°
8
1%
08:00
16°
1005.8 hPa 30.3 mm 10.6°
8
1%
11:00
17°
1007.4 hPa 30.4 mm 10.2°
7
1%
14:00
18°
1008.4 hPa 30.4 mm 9.9°
7
1%
17:00
18°
1009.2 hPa 30.4 mm 8.7°
6
1%
20:00
18°
1009.4 hPa 30.5 mm 11.0°
5
1%
23:00
16°
1010.2 hPa 30.7 mm 9.8°
4
1%
 05:20     21:12    Daglengte: 15:52 Dinsdag 03 Aug
02:00
15°
1011.0 hPa 31.0 mm 10.8°
5
1%
05:00
13°
1010.8 hPa 31.1 mm 10.9°
5
1%
08:00
15°
1011.4 hPa 31.8 mm 10.5°
5
1%
11:00
18°
1012.0 hPa 32.2 mm 9.5°
6
1%
14:00
18°
1012.0 hPa 32.7 mm 9.0°
7
1%
17:00
19°
1011.9 hPa 32.7 mm 8.2°
7
1%
20:00
17°
1012.3 hPa 32.7 mm 9.0°
5
1%
23:00
16°
1013.0 hPa 32.8 mm 9.4°
4
1%
 05:22     21:10    Daglengte: 15:48 Woensdag 04 Aug
02:00
15°
1013.2 hPa 32.8 mm 10.4°
4
1%
05:00
14°
1013.3 hPa   10.6°
4
1%
08:00
16°
1014.0 hPa 65.7 mm 10.5°
4
1%
14:00
19°
1013.0 hPa 65.7 mm 7.8°
2
0%
20:00
18°
1011.3 hPa 65.7 mm 10.7°
4
1%
 05:24     21:08    Daglengte: 15:44 Donderdag 05 Aug
02:00
16°
1008.9 hPa 65.7 mm 11.5°
5
1%
08:00
16°
1004.3 hPa 79.9 mm 14.7°
6
1%
14:00
20°
1001.9 hPa 98.2 mm 13.8°
5
1%
20:00
18°
1001.6 hPa 101.0 mm 14.6°
6
0%
 05:26     21:06    Daglengte: 15:40 Vrijdag 06 Aug
02:00
16°
1002.4 hPa 101.0 mm 14.8°
2
1%
08:00
17°
1001.8 hPa 101.7 mm 14.3°
2
1%
14:00
20°
1001.8 hPa 104.0 mm 13.1°
2
1%
20:00
18°
1000.8 hPa 105.9 mm 13.7°
2
1%
 05:28     21:04    Daglengte: 15:36 Zaterdag 07 Aug
02:00
16°
1005.2 hPa 0.9 mm 12.9°
1
71%
08:00
17°
1005.0 hPa 0.5 mm 13.2°
2
69%
14:00
20°
1005.5 hPa 1.4 mm 13.1°
3
69%
20:00
18°
1006.0 hPa 1.5 mm 13.1°
2
54%
 05:30     21:02    Daglengte: 15:32 Zondag 08 Aug
02:00
15°
1007.0 hPa 0.5 mm 12.5°
3
52%
08:00
16°
1007.5 hPa 0.7 mm 12.7°
3
60%
14:00
20°
1008.9 hPa 1.2 mm 12.6°
4
62%
20:00
18°
1009.5 hPa 0.6 mm 13.2°
3
59%
 05:32     20:59    Daglengte: 15:27 Maandag 09 Aug
02:00
16°
1010.6 hPa 0.6 mm 12.5°
3
61%
08:00
17°
1010.9 hPa 0.4 mm 12.8°
3
60%
14:00
20°
1012.0 hPa 1.2 mm 13.1°
4
70%
20:00
18°
1012.3 hPa 0.6 mm 13.3°
3
64%
 05:34     20:57    Daglengte: 15:23 Dinsdag 10 Aug
02:00
16°
1013.3 hPa 0.3 mm 12.6°
3
55%
08:00
17°
1013.4 hPa 0.1 mm 12.7°
2
63%
14:00
20°
1013.9 hPa   13.5°
3
75%
20:00
18°
1013.8 hPa 1.2 mm 13.2°
3
70%
 05:36     20:55    Daglengte: 15:19 Woensdag 11 Aug
02:00
16°
1014.3 hPa 0.4 mm 12.6°
2
59%
08:00
17°
1013.9 hPa 1.4 mm 13.3°
2
68%
14:00
20°
1014.2 hPa 0.4 mm 13.4°
3
67%
20:00
18°
1013.9 hPa 0.5 mm 13.4°
3
59%
 05:38     20:52    Daglengte: 15:14 Donderdag 12 Aug
02:00
16°
1014.0 hPa 0.7 mm 12.9°
3
65%
  CAPE Lifted Index Hail Supercell Tornado SRH 3km CL BTM PRES CL TOP PRES Swiss DWD icon SMHI TS
 05:09     21:24    Daglengte: 16:15 Vandaag
07:00 252 J/kg -0.8 K 0 % 0 % 0 % 0 m²/s² 0 0 -0.71 3
08:00 314 J/kg -1.1 K 0 % 0 % 0 % 0 m²/s² 0 0 -1.01 80
09:00 334 J/kg -0.7 K 0 % 0 % 0 % 0 m²/s² 0 0 -0.61 80
10:00 278 J/kg -0.2 K 0 % 0 % 0 % 0 m²/s² 0 0 0.31 95
11:00 405 J/kg -1.1 K 0 % 0 % 0 % 0 m²/s² 0 0 -0.62 95
12:00 385 J/kg -1.3 K 0 % 0 % 0 % 0 m²/s² 0 0 -0.64 80
13:00 292 J/kg -1.0 K 0 % 0 % 0 % 0 m²/s² 0 0 -0.07 95
14:00 250 J/kg -0.7 K 0 % 0 % 0 % 0 m²/s² 0 0 0.38 95
15:00 289 J/kg -0.6 K 0 % 0 % 0 % 0 m²/s² 0 0 0.81 95
16:00 378 J/kg -0.9 K 0 % 0 % 0 % 0 m²/s² 0 0 0.51 95
17:00 481 J/kg -1.3 K 0 % 0 % 0 % 0 m²/s² 0 0 0.14 80
18:00 484 J/kg -1.3 K 0 % 0 % 0 % 0 m²/s² 0 0 0.77 2
19:00 549 J/kg -1.7 K 0 % 0 % 0 % 0 m²/s² 0 0 0.1 2
20:00 545 J/kg -1.8 K 0 % 0 % 0 % 0 m²/s² 0 0 -0.45 80
21:00 580 J/kg -2.1 K 0 % 0 % 0 % 0 m²/s² 0 0 -1.11 3
22:00 472 J/kg -1.5 K 0 % 0 % 0 % 0 m²/s² 0 0 -0.36 2
23:00 479 J/kg -1.8 K 0 % 0 % 0 % 0 m²/s² 0 0 -1.32 3
 05:11     21:22    Daglengte: 16:11 Morgen
00:00 98 J/kg -0.1 K 0 % 0 % 0 % 0 m²/s² 0 0 1.46 3
01:00 367 J/kg -1.7 K 0 % 0 % 0 % 0 m²/s² 0 0 0.16 3
02:00 222 J/kg -1.0 K 0 % 0 % 0 % 0 m²/s² 0 0 1.04 2
03:00 168 J/kg -0.4 K 0 % 0 % 0 % 0 m²/s² 0 0 0.98 2
04:00 127 J/kg 0.3 K 0 % 0 % 0 % 0 m²/s² 0 0 2.07 2
05:00 344 J/kg -1.0 K 0 % 0 % 0 % 0 m²/s² 0 0 0.47 2
06:00 376 J/kg -0.5 K 0 % 0 % 0 % 0 m²/s² 0 0 0.7 2
07:00 232 J/kg 0.8 K 0 % 0 % 0 % 0 m²/s² 0 0 4.85 2
08:00 315 J/kg 0.2 K 0 % 0 % 0 % 0 m²/s² 0 0 5.18 2
09:00 280 J/kg 0.5 K 0 % 0 % 0 % 0 m²/s² 0 0 5.21 2
10:00 272 J/kg 0.4 K 0 % 0 % 0 % 0 m²/s² 0 0 4.21 3
11:00 417 J/kg -0.7 K 0 % 0 % 0 % 0 m²/s² 0 0 1.34 95
12:00 503 J/kg -1.1 K 0 % 0 % 0 % 0 m²/s² 0 0 1.36 80
13:00 344 J/kg -0.7 K 0 % 0 % 0 % 0 m²/s² 0 0 0.14 2
14:00 63 J/kg 1.1 K 0 % 0 % 0 % 0 m²/s² 0 0 1.52 2
15:00 54 J/kg 0.1 K 0 % 0 % 0 % 0 m²/s² 0 0 1.06 2
16:00 386 J/kg -1.7 K 0 % 0 % 0 % 0 m²/s² 0 0 -0.41 2
17:00 378 J/kg -1.7 K 0 % 0 % 0 % 0 m²/s² 0 0 -0.71 2
18:00 365 J/kg -1.5 K 0 % 0 % 0 % 0 m²/s² 0 0 -0.72 80
19:00 325 J/kg -1.4 K 0 % 0 % 0 % 0 m²/s² 0 0 -0.53 80
20:00 312 J/kg -1.4 K 0 % 0 % 0 % 0 m²/s² 0 0 -0.89 80
21:00 573 J/kg -3.0 K 0 % 0 % 0 % 0 m²/s² 0 0 -1.8 80
22:00 699 J/kg -2.9 K 0 % 0 % 0 % 0 m²/s² 0 0 -1.22 80
23:00 517 J/kg -2.1 K 0 % 0 % 0 % 0 m²/s² 0 0 -0.3 80
 05:13     21:20    Daglengte: 16:07 Vrijdag 30 Jul
00:00 413 J/kg -1.8 K 0 % 0 % 0 % 0 m²/s² 0 0 0.06 3
01:00 271 J/kg -1.6 K 0 % 0 % 0 % 0 m²/s² 0 0 0.86 2
02:00 188 J/kg -0.8 K 0 % 0 % 0 % 0 m²/s² 0 0 1.81 80
03:00 82 J/kg 0.2 K 0 % 0 % 0 % 0 m²/s² 0 0 3.23 2
04:00 3 J/kg 0.4 K 0 % 0 % 0 % 0 m²/s² 0 0 1.09 2
05:00 0 J/kg 0.3 K 0 % 0 % 0 % 0 m²/s² 0 0 2.19 2
06:00 25 J/kg -1.3 K 0 % 0 % 0 % 0 m²/s² 0 0 -0.1 2
07:00 427 J/kg -1.9 K 0 % 0 % 0 % 0 m²/s² 0 0 0.2 2
08:00 700 J/kg -2.9 K 0 % 0 % 0 % 0 m²/s² 0 0 0.16 2
09:00 747 J/kg -2.8 K 0 % 0 % 0 % 0 m²/s² 0 0 0.02 1
10:00 401 J/kg -1.6 K 0 % 0 % 0 % 0 m²/s² 0 0 0.92 2
11:00 270 J/kg -0.9 K 0 % 0 % 0 % 0 m²/s² 0 0 1.02 2
12:00 523 J/kg -1.5 K 0 % 0 % 0 % 0 m²/s² 0 0 0.12 2
13:00 321 J/kg -1.0 K 0 % 0 % 0 % 0 m²/s² 0 0 0.86 1
14:00 333 J/kg -0.9 K 0 % 0 % 0 % 0 m²/s² 0 0 0.39 2
15:00 307 J/kg -0.7 K 0 % 0 % 0 % 0 m²/s² 0 0 0.38 1
16:00 154 J/kg -0.2 K 0 % 0 % 0 % 0 m²/s² 0 0 1 1
17:00 103 J/kg 0.2 K 0 % 0 % 0 % 0 m²/s² 0 0 1.79 1
18:00 53 J/kg 0.6 K 0 % 0 % 0 % 0 m²/s² 0 0 2.43 1
19:00 35 J/kg 0.8 K 0 % 0 % 0 % 0 m²/s² 0 0 3.08 1
20:00 41 J/kg 0.6 K 0 % 0 % 0 % 0 m²/s² 0 0 3.24 0
21:00 37 J/kg 0.5 K 0 % 0 % 0 % 0 m²/s² 0 0 3.47 3
22:00 25 J/kg 0.7 K 0 % 0 % 0 % 0 m²/s² 0 0 3.85 3
23:00 10 J/kg 1.4 K 0 % 0 % 0 % 0 m²/s² 0 0 4.52 3
 05:15     21:18    Daglengte: 16:03 Zaterdag 31 Jul
00:00 12 J/kg 1.7 K 0 % 0 % 0 % 0 m²/s² 0 0 5.18 3
01:00 12 J/kg 1.8 K 0 % 0 % 0 % 0 m²/s² 0 0 5.1 2
02:00 10 J/kg 2.2 K 0 % 0 % 0 % 0 m²/s² 0 0 5.5 2
03:00 9 J/kg 2.2 K 0 % 0 % 0 % 0 m²/s² 0 0 5.23 3
04:00 7 J/kg 1.8 K 0 % 0 % 0 % 0 m²/s² 0 0 4.92 2
05:00 9 J/kg 1.6 K 0 % 0 % 0 % 0 m²/s² 0 0 4.24 3
06:00 10 J/kg 1.7 K 0 % 0 % 0 % 0 m²/s² 0 0 3.56 2
Temp Baro Wind Neerslag
  EWN Forecast EWN WRFDA DWD ICON FMI HIRLAM MET Norway GFS
 05:09     21:24    Daglengte: 16:15 Vandaag
08:00 19.3° 1008.2 hPa 3.0 m/s 0.4 mm 17.9° 1007.9 hPa 3.8 m/s 0.2 mm 20.1° 1008.0 hPa 3.2 m/s -1.7 mm 18.8° 1008.2 hPa 3.2 m/s 0.0 mm 16.8° 1008.5 hPa 4.1 m/s
11:00 20.2° 1008.0 hPa 4.6 m/s 2.7 mm 20.0° 1008.1 hPa 4.6 m/s 0.8 mm 20.2° 1008.2 hPa 4.3 m/s 3.5 mm 20.4° 1007.9 hPa 5.3 m/s 0.0 mm 19.0° 1008.4 hPa 4.2 m/s
14:00 21.2° 1007.4 hPa 4.8 m/s 1.2 mm 20.9° 1007.3 hPa 4.9 m/s 2.9 mm 21.2° 1007.7 hPa 3.4 m/s 3.5 mm 21.9° 1007.4 hPa 5.0 m/s 0.0 mm 20.7° 1007.6 hPa 5.6 m/s
17:00 21.5° 1006.8 hPa 4.8 m/s 0.0 mm 21.1° 1006.7 hPa 1.6 m/s 3.4 mm 21.3° 1007.3 hPa 3.2 m/s 2.2 mm 23.0° 1006.5 hPa 5.5 m/s 0.0 mm 21.5° 1007.2 hPa 5.5 m/s
20:00 20.8° 1006.5 hPa 4.3 m/s 0.0 mm 21.3° 1005.9 hPa 0.4 m/s 4.5 mm 20.2° 1006.9 hPa 3.0 m/s 0.3 mm 21.8° 1006.5 hPa 4.7 m/s 0.0 mm 19.9° 1006.8 hPa 4.7 m/s
23:00 19.8° 1006.0 hPa 4.3 m/s 0.0 mm 19.2° 1006.1 hPa 7.9 m/s 5.4 mm 19.3° 1006.7 hPa 3.6 m/s 0.0 mm 19.8° 1005.8 hPa 2.6 m/s 0.0 mm 17.1° 1006.7 hPa 4.4 m/s
 05:11     21:22    Daglengte: 16:11 Morgen
02:00 18.3° 1004.9 hPa 5.9 m/s 0.0 mm 16.6° 1004.7 hPa 6.0 m/s 7.6 mm 17.9° 1005.5 hPa 5.3 m/s 0.1 mm 18.5° 1004.8 hPa 5.6 m/s 0.0 mm 16.2° 1005.8 hPa 5.1 m/s
05:00 17.1° 1004.0 hPa 6.8 m/s 0.0 mm 15.8° 1003.6 hPa 5.3 m/s 7.6 mm 16.9° 1004.9 hPa 5.5 m/s 0.0 mm 17.1° 1003.3 hPa 7.0 m/s 0.0 mm 15.3° 1005.0 hPa 6.6 m/s
08:00 17.7° 1003.3 hPa 8.7 m/s 0.0 mm 17.8° 1002.5 hPa 7.1 m/s 7.6 mm 17.7° 1003.8 hPa 6.6 m/s 0.0 mm 17.3° 1003.1 hPa 9.2 m/s 0.0 mm 16.8° 1004.2 hPa 8.2 m/s
11:00 17.8° 1002.8 hPa 8.9 m/s 2.1 mm 18.5° 1001.7 hPa 9.8 m/s 7.8 mm 17.3° 1003.6 hPa 6.7 m/s 1.1 mm 18.0° 1002.7 hPa 8.8 m/s 0.0 mm 18.0° 1003.9 hPa 10.0 m/s
14:00 19.0° 1002.8 hPa 10.4 m/s 0.8 mm 17.1° 1002.4 hPa 12.1 m/s 9.2 mm 19.4° 1003.1 hPa 7.5 m/s 0.4 mm 19.4° 1002.2 hPa 10.6 m/s 0.0 mm 17.9° 1003.7 hPa 10.6 m/s
17:00 18.6° 1002.0 hPa 9.0 m/s 1.2 mm 18.2° 1000.7 hPa 11.0 m/s 10.4 mm 18.4° 1003.1 hPa 7.3 m/s 0.2 mm 19.7° 1001.3 hPa 8.6 m/s 0.0 mm 19.4° 1002.6 hPa 10.9 m/s
20:00 17.4° 1002.3 hPa 9.1 m/s 3.5 mm 15.8° 1001.1 hPa 10.8 m/s 11.9 mm 17.1° 1002.6 hPa 6.9 m/s 1.5 mm 18.2° 1002.1 hPa 9.5 m/s 0.0 mm 16.0° 1002.4 hPa 12.0 m/s
23:00 16.8° 1002.7 hPa 7.7 m/s 0.0 mm 15.3° 1001.8 hPa 7.8 m/s 12.3 mm 16.1° 1002.7 hPa 6.4 m/s 1.3 mm 17.1° 1002.8 hPa 7.6 m/s 0.0 mm 15.3° 1003.2 hPa 10.2 m/s
 05:13     21:20    Daglengte: 16:07 Vrijdag 30 Jul
02:00 16.6° 1002.1 hPa 8.6 m/s 1.1 mm 14.3° 1001.1 hPa 8.4 m/s 13.0 mm 15.9° 1002.6 hPa 6.3 m/s 0.5 mm 17.0° 1002.2 hPa 8.9 m/s 0.0 mm 14.7° 1002.8 hPa 9.3 m/s
05:00 16.0° 1000.6 hPa 8.6 m/s 2.1 mm 15.0° 999.2 hPa 9.1 m/s 13.7 mm 15.8° 1002.1 hPa 5.6 m/s 0.4 mm 14.9° 1001.9 hPa 9.8 m/s
08:00 17.3° 1000.2 hPa 10.0 m/s 5.8 mm 17.3° 998.3 hPa 10.8 m/s 14.4 mm 16.8° 1001.9 hPa 7.1 m/s 0.0 mm 16.5° 1000.6 hPa 10.4 m/s
11:00 19.0° 1000.9 hPa 9.6 m/s 6.0 mm 18.9° 999.2 hPa 10.7 m/s 15.7 mm 19.3° 1001.5 hPa 7.2 m/s 0.2 mm 17.6° 999.8 hPa 11.3 m/s
14:00 20.7° 1000.7 hPa 9.8 m/s 0.0 mm 20.7° 999.6 hPa 11.8 m/s 15.8 mm 21.1° 1001.3 hPa 7.4 m/s 0.1 mm 19.2° 1000.5 hPa 11.7 m/s
17:00 21.1° 1000.6 hPa 8.7 m/s 0.0 mm 20.6° 1000.1 hPa 11.8 m/s 15.8 mm 21.6° 1001.6 hPa 6.1 m/s 0.0 mm 20.7° 1001.2 hPa 11.0 m/s
20:00 19.7° 1000.7 hPa 8.0 m/s 3.8 mm 19.6° 1000.2 hPa 10.0 m/s 15.8 mm 20.3° 1002.0 hPa 5.5 m/s 0.0 mm 19.3° 1002.0 hPa 9.1 m/s
23:00 18.1° 1000.9 hPa 5.7 m/s 0.0 mm 17.7° 1000.5 hPa 8.0 m/s 15.8 mm 18.1° 1002.8 hPa 4.2 m/s 0.0 mm 17.3° 1002.5 hPa 7.8 m/s
 05:15     21:18    Daglengte: 16:03 Zaterdag 31 Jul
02:00 17.1° 1000.3 hPa 5.0 m/s 2.1 mm 16.2° 1000.0 hPa 6.7 m/s 15.9 mm 17.1° 1002.4 hPa 3.3 m/s 0.0 mm 16.2° 1002.5 hPa 7.9 m/s
05:00 16.4° 1001.1 hPa 3.3 m/s 0.0 mm 15.6° 999.0 hPa 6.0 m/s 16.1 mm 16.6° 1001.6 hPa 2.6 m/s 0.0 mm 16.9° 1001.5 hPa 7.8 m/s
08:00 17.7° 1000.0 hPa 5.1 m/s 6.4 mm 16.6° 998.7 hPa 5.8 m/s 16.2 mm 17.9° 1000.4 hPa 4.9 m/s 1.6 mm 16.8° 1001.1 hPa 6.5 m/s
11:00 20.3° 1000.4 hPa 6.2 m/s 19.5 mm 20.3° 1000.4 hPa 6.2 m/s 19.5 mm
14:00 19.3° 999.6 hPa 5.6 m/s 22.5 mm 19.3° 999.6 hPa 5.6 m/s 22.5 mm
17:00 18.8° 998.7 hPa 6.5 m/s 25.9 mm 18.8° 998.7 hPa 6.5 m/s 25.9 mm
20:00 16.9° 998.8 hPa 4.7 m/s 28.5 mm 16.9° 998.8 hPa 4.7 m/s 28.5 mm
23:00 15.4° 1000.8 hPa 7.5 m/s 28.9 mm 15.4° 1000.8 hPa 7.5 m/s 28.9 mm
 05:17     21:16    Daglengte: 15:59 Zondag 01 Aug
02:00 15.0° 1001.6 hPa 7.3 m/s 29.0 mm 15.0° 1001.6 hPa 7.3 m/s 29.0 mm
05:00 15.0° 1001.7 hPa 7.1 m/s 29.2 mm 15.0° 1001.7 hPa 7.1 m/s 29.2 mm
08:00 15.7° 1002.2 hPa 6.6 m/s 29.3 mm 15.7° 1002.2 hPa 6.6 m/s 29.3 mm
11:00 16.9° 1003.1 hPa 7.3 m/s 29.6 mm 16.9° 1003.1 hPa 7.3 m/s 29.6 mm
14:00 18.4° 1003.6 hPa 7.4 m/s 29.7 mm 18.4° 1003.6 hPa 7.4 m/s 29.7 mm
17:00 18.6° 1003.7 hPa 6.3 m/s 29.8 mm 18.6° 1003.7 hPa 6.3 m/s 29.8 mm
20:00 17.4° 1003.6 hPa 6.0 m/s 29.9 mm 17.4° 1003.6 hPa 6.0 m/s 29.9 mm
23:00 15.0° 1004.3 hPa 5.6 m/s 29.9 mm 15.0° 1004.3 hPa 5.6 m/s 29.9 mm
 05:18     21:14    Daglengte: 15:56 Maandag 02 Aug
02:00 14.2° 1004.5 hPa 6.9 m/s 30.0 mm 14.2° 1004.5 hPa 6.9 m/s 30.0 mm
05:00 15.3° 1004.8 hPa 8.2 m/s 30.2 mm 15.3° 1004.8 hPa 8.2 m/s 30.2 mm
08:00 16.4° 1005.8 hPa 7.7 m/s 30.3 mm 16.4° 1005.8 hPa 7.7 m/s 30.3 mm
11:00 17.5° 1007.4 hPa 7.5 m/s 30.4 mm 17.5° 1007.4 hPa 7.5 m/s 30.4 mm
14:00 17.9° 1008.4 hPa 7.0 m/s 30.4 mm 17.9° 1008.4 hPa 7.0 m/s 30.4 mm
17:00 18.4° 1009.2 hPa 6.4 m/s 30.4 mm 18.4° 1009.2 hPa 6.4 m/s 30.4 mm
20:00 17.5° 1009.4 hPa 5.4 m/s 30.5 mm 17.5° 1009.4 hPa 5.4 m/s 30.5 mm
23:00 16.3° 1010.2 hPa 4.4 m/s 30.7 mm 16.3° 1010.2 hPa 4.4 m/s 30.7 mm
 05:20     21:12    Daglengte: 15:52 Dinsdag 03 Aug
02:00 15.2° 1011.0 hPa 5.3 m/s 31.0 mm 15.2° 1011.0 hPa 5.3 m/s 31.0 mm
05:00 13.0° 1010.8 hPa 5.2 m/s 31.1 mm 13.0° 1010.8 hPa 5.2 m/s 31.1 mm
08:00 15.2° 1011.4 hPa 5.4 m/s 31.8 mm 15.2° 1011.4 hPa 5.4 m/s 31.8 mm
11:00 17.6° 1012.0 hPa 5.8 m/s 32.2 mm 17.6° 1012.0 hPa 5.8 m/s 32.2 mm
14:00 18.4° 1012.0 hPa 6.7 m/s 32.7 mm 18.4° 1012.0 hPa 6.7 m/s 32.7 mm
17:00 18.5° 1011.9 hPa 6.9 m/s 32.7 mm 18.5° 1011.9 hPa 6.9 m/s 32.7 mm
20:00 17.0° 1012.3 hPa 5.0 m/s 32.7 mm 17.0° 1012.3 hPa 5.0 m/s 32.7 mm
23:00 15.9° 1013.0 hPa 3.9 m/s 32.8 mm 15.9° 1013.0 hPa 3.9 m/s 32.8 mm
 05:22     21:10    Daglengte: 15:48 Woensdag 04 Aug
02:00 15.3° 1013.2 hPa 4.0 m/s 32.8 mm 15.3° 1013.2 hPa 4.0 m/s 32.8 mm
05:00 14.2° 1013.3 hPa 3.7 m/s 32.8 mm 14.2° 1013.3 hPa 3.7 m/s 32.8 mm
08:00 15.7° 1014.0 hPa 4.2 m/s 32.8 mm 15.7° 1014.0 hPa 4.2 m/s 32.8 mm
14:00 19.4° 1013.0 hPa 2.2 m/s 32.8 mm 19.4° 1013.0 hPa 2.2 m/s 32.8 mm
20:00 18.3° 1011.3 hPa 3.9 m/s 32.8 mm 18.3° 1011.3 hPa 3.9 m/s 32.8 mm
 05:24     21:08    Daglengte: 15:44 Donderdag 05 Aug
02:00 16.3° 1008.9 hPa 5.1 m/s 32.9 mm 16.3° 1008.9 hPa 5.1 m/s 32.9 mm
08:00 15.5° 1004.3 hPa 6.1 m/s 45.8 mm 15.5° 1004.3 hPa 6.1 m/s 45.8 mm
14:00 20.3° 1001.9 hPa 5.4 m/s 50.1 mm 20.3° 1001.9 hPa 5.4 m/s 50.1 mm
20:00 18.5° 1001.6 hPa 5.7 m/s 50.5 mm 18.5° 1001.6 hPa 5.7 m/s 50.5 mm
 05:26     21:06    Daglengte: 15:40 Vrijdag 06 Aug
02:00 16.5° 1002.4 hPa 2.4 m/s 50.5 mm 16.5° 1002.4 hPa 2.4 m/s 50.5 mm
08:00 17.2° 1001.8 hPa 2.5 m/s 51.0 mm 17.2° 1001.8 hPa 2.5 m/s 51.0 mm
14:00 20.3° 1001.8 hPa 2.5 m/s 52.7 mm 20.3° 1001.8 hPa 2.5 m/s 52.7 mm
20:00 18.2° 1000.8 hPa 1.8 m/s 53.0 mm 18.2° 1000.8 hPa 1.8 m/s 53.0 mm
 05:28     21:04    Daglengte: 15:36 Zaterdag 07 Aug
02:00 15.7° 1005.2 hPa 1.4 m/s 0.9 mm
08:00 16.7° 1005.0 hPa 2.0 m/s 0.5 mm
14:00 20.0° 1005.5 hPa 3.4 m/s 1.4 mm
20:00 18.2° 1006.0 hPa 2.5 m/s 1.5 mm
 05:30     21:02    Daglengte: 15:32 Zondag 08 Aug
02:00 15.3° 1007.0 hPa 2.7 m/s 0.5 mm
08:00 16.3° 1007.5 hPa 3.0 m/s 0.7 mm
14:00 19.8° 1008.9 hPa 4.2 m/s 1.2 mm
20:00 18.3° 1009.5 hPa 3.0 m/s 0.6 mm
 05:32     20:59    Daglengte: 15:27 Maandag 09 Aug
02:00 15.8° 1010.6 hPa 2.7 m/s 0.6 mm
08:00 16.6° 1010.9 hPa 2.7 m/s 0.4 mm
14:00 19.8° 1012.0 hPa 3.8 m/s 1.2 mm
20:00 18.3° 1012.3 hPa 2.6 m/s 0.6 mm
 05:34     20:57    Daglengte: 15:23 Dinsdag 10 Aug
02:00 15.8° 1013.3 hPa 2.6 m/s 0.3 mm
08:00 16.7° 1013.4 hPa 2.4 m/s 0.1 mm
14:00 19.7° 1013.9 hPa 3.0 m/s 0.0 mm
20:00 18.3° 1013.8 hPa 2.6 m/s 1.2 mm
 05:36     20:55    Daglengte: 15:19 Woensdag 11 Aug
02:00 15.8° 1014.3 hPa 2.1 m/s 0.4 mm
08:00 16.5° 1013.9 hPa 1.9 m/s 1.4 mm
14:00 20.0° 1014.2 hPa 3.2 m/s 0.4 mm
20:00 18.5° 1013.9 hPa 2.9 m/s 0.5 mm
 05:38     20:52    Daglengte: 15:14 Donderdag 12 Aug
02:00 16.0° 1014.0 hPa 3.2 m/s 0.7 mm
FMI Hirlam - 7.5 km EWN WRFDA - 12 km DWD ICON - 7 km GFS - 25 km Basiskaart






























































Updatetijd (Europe/Amsterdam) Resolutie Lengte Stap
FMI Hirlam 01:45, 07:45, 13:45, 19:45 7.5 km 49h 1h
EWN WRFDA 05:30, 11:30, 17:30, 23:30 12 km 73h 1h
DWD ICON 06:00, 12:00, 18:00, 00:00 7 km 75h 1h
GFS 02:15, 08:15, 14:15, 20:15 25 km 237h 3h
30+ mm
25-30 mm
20-25 mm
15-20 mm
10-15 mm
6-10 mm
4-6 mm
2-4 mm
1-2 mm
0.5-1 mm
0.2-0.5 mm
0.1-0.2 mm
30+ mm
25-30 mm
20-25 mm
15-20 mm
10-15 mm
6-10 mm
4-6 mm
2-4 mm
1-2 mm
0.5-1 mm
0.2-0.5 mm
0.1-0.2 mm
Sneeuwval
Natte sneeuw
Hagel
Vorst
30+ mm
25-30 mm
20-25 mm
15-20 mm
10-15 mm
6-10 mm
4-6 mm
2-4 mm
1-2 mm
0.5-1 mm
0.2-0.5 mm
0.1-0.2 mm
Sneeuwval
Natte sneeuw
Hagel
Vorst
Onweer
50 mm
40 mm
30 mm
26 mm
22 mm
18 mm
14 mm
10 mm
9 mm
8 mm
7 mm
6 mm
5 mm
4.5 mm
4 mm
3.5 mm
3 mm
2.5 mm
2 mm
1.5 mm
1 mm
0.8 mm
0.6 mm
0.4 mm
0.2 mm
0.05 mm